Regional Weather Roundup
Issued by NWS Wakefield, VA

Home | Current Version | Previous Version | Graphics & Text | Print | Product List | Glossary On
Versions: 1 2 3 4 5 6 7 8 9 10 11 12 13 14 15 16 17 18 19 20 21 22 23 24 25 26 27 28 29 30 31 32 33 34 35 36 37 38 39 40 41 42 43 44 45 46 47 48 49 50
000
ASUS41 KAKQ 122115
RWRAKQ

REGIONAL WEATHER ROUNDUP
NATIONAL WEATHER SERVICE WAKEFIELD VA
400 PM EST FRI FEB 12 2016

Note: "fair" indicates few or no clouds below 12,000 feet with no
significant weather and/or obstructions to visibility. * = Denotes
station may not report precipitation (e.g., rain,snow,etc.),
thunder or fog.

VAZ042-051-052>054-056-122200-
NORTHERN VIRGINIA

CITY           SKY/WX    TMP DP  RH WIND       PRES   REMARKS
WASH NATIONAL  CLOUDY    30  10  43 S6        30.05F
DULLES         PTSUNNY   29   6  38 S8        30.01F
FORT BELVOIR   PTSUNNY   30   7  37 S3        30.04F
QUANTICO       CLOUDY    31  10  41 S9        30.05F
FREDERICKSBRG* FAIR      31  12  44 S9        30.02F
STAFFORD*      CLOUDY    30   6  37 S7        30.06F
WARRENTON      CLOUDY    31  13  45 S8        30.00F
CULPEPER*      CLOUDY    30   7  39 S6        30.02F
MANASSAS*      CLOUDY    30  10  43 SW3       30.02F
LEESBURG*      CLOUDY    32  12  43 S7        30.01F
WINCHESTER     CLOUDY    32  10  40 N3        29.97S
FRONT ROYAL*   CLOUDY    32  10  40 CALM      29.95S
LURAY*         CLOUDY    34  10  37 SW8       29.92F
$$

VAZ048-049-060>072-079>083-122200-
CENTRAL AND SOUTH CENTRAL VIRGINIA

CITY           SKY/WX    TMP DP  RH WIND       PRES   REMARKS
RICHMOND       FLURRIES  28  14  55 VRB3      30.05F
CHESTERFIELD*  MOCLDY    28   5  37 SW5       30.06F
PETERSBURG*    CLOUDY    30  14  50 S6        30.06F
HANOVER        CLOUDY    29  11  47 SE8       30.05F
TAPPAHANNOCK*  CLOUDY    30   9  41 S7        30.05F
QUINTON*       CLOUDY    28  14  55 CALM      30.05F
CHARLOTTSVILLE FAIR      32  10  40 S8        29.97F
GORDONSVILLE*  MOCLDY    32  10  40 S8G16     29.98F
ORANGE*        PTSUNNY   32   9  37 S7        30.01F
LOUISA*        PTSUNNY   30   9  40 S6        29.99F
BUMPASS*       CLOUDY    30   8  39 SW7       30.01F
FARMVILLE*     CLOUDY    30  20  65 S8        30.00F
CREWE*         CLOUDY    29  15  56 SE6       30.02F
FORT PICKETT*  CLOUDY    27  18  69 SE3       30.03F
CHASE CITY*    CLOUDY    27  18  69 CALM      30.03F
CLARKSVILLE*   CLOUDY    30  19  64 CALM      30.04F
SOUTH HILL*    CLOUDY    28  20  74 CALM      30.10F
LAWRENCEVILLE* CLOUDY    27  21  76 CALM      30.05F
EMPORIA*       CLOUDY    28  21  74 N3        30.08F
$$

VAZ088>098-122200-
SOUTHEAST VIRGINIA

CITY           SKY/WX    TMP DP  RH WIND       PRES   REMARKS
NORFOLK        LGT SNOW  27  21  78 SE5       30.08F VSB 1
VIRGINIA BEACH LGT SNOW  31  23  72 E3        30.07F VSB 3/4
NORFOLK NAVAL  LGT SNOW  28  23  81 SE7       30.09F FOG
WEST POINT*    PTSUNNY   30  13  50 E3        30.08F
SALUDA*        CLOUDY    27  19  71 CALM      30.06F
NEWPORT NEWS   SNOW      26  22  84 SE5       30.08S VSB 1/2
LANGLEY AFB    SNOW      27  23  85 E3        30.07F VSB 1/4
FORT EUSTIS    LGT SNOW  27  23  86 SE6       30.06S
WILLIAMSBURG*  PTSUNNY   30  23  74 S9        30.08S
HR EXEC AP*    CLOUDY    28  23  80 CALM      30.09F
FRANKLIN*      LGT SNOW  27  23  84 CALM      30.08F
US460-WAKEFLD  LGT SNOW  28  23  81 CALM      30.07F
$$

VAZ020-022-025-037-045-122200-
WEST CENTRAL AND SOUTHWEST VIRGINIA

CITY           SKY/WX    TMP DP  RH WIND       PRES   REMARKS
STAUNTON*      CLOUDY    38  13  36 S8        29.93F
WAYNESBORO*    CLOUDY    32  10  40 SW8       29.91F
HOT SPRINGS VA LGT SNOW  23  23 100 W13G18    29.77S WCI  11
LYNCHBURG      PTSUNNY   28  15  58 S9        29.99F
DANVILLE       FAIR      32  16  51 SW3       30.03F
SOUTH BOSTON*  CLOUDY    30  18  60 CALM      30.03F
MARTINSVILLE   PTSUNNY   32  13  46 S5        30.01F
ROANOKE        CLOUDY    31  17  56 SE6       29.98F
BLACKSBURG     CLOUDY    31  24  75 W5        29.94R
DUBLIN*        LGT SNOW  32  26  80 W5        29.93R
MARION*        FLURRIES  31  27  84 W18G29    29.93S WCI  19
HILLSVILLE*    CLOUDY    28  22  80 SW6       29.88S
RICHLANDS*     CLOUDY    28  24  86 W9        29.94R
WISE*          CLOUDY    30  21  69 W14G20    29.97R WCI  20
ABINGDON*      CLOUDY    32  27  81 W12       29.99R WCI  23
$$

MDZ021>025-VAZ099-100-122200-
SOUTHERN MARYLAND AND THE DELMARVA PENINSULA

CITY           SKY/WX    TMP DP  RH WIND       PRES   REMARKS
PATUXENT RIVER CLOUDY    27  11  51 SE13      30.05F WCI  16
BAY BRIDGE APT   N/A     28   5  37 CALM      30.06F
LEONARDTOWN    CLOUDY    30   9  40 S5        30.05
DOVER          CLOUDY    27  12  54 E8        30.06F
GEORGETOWN     CLOUDY    29   5  36 VRB3      30.07F
EASTON         PTSUNNY   28   5  37 S6        30.09
CAMBRIDGE      PTSUNNY   28   9  43 SW3       30.05F
SALISBURY      CLOUDY    29   9  43 SW6       30.06F
OCEAN CITY     CLOUDY    27  11  51 S6        30.09F
WALLOPS ISLAND CLOUDY    27  12  53 S8        30.08F
ACCOMACK*      CLOUDY    28  12  50 S5        30.07F
$$

NCZ012>017-030>032-122200-
NORTH CENTRAL AND EASTERN NORTH CAROLINA

CITY           SKY/WX    TMP DP  RH WIND       PRES   REMARKS
ROANOKE RAPIDS MOCLDY    30  23  74 CALM      30.07F
RALEIGH        CLOUDY    30  20  66 CALM      30.05F
ELIZABETH CITY SNOW      28  26  92 N7        30.07F VSB 1/2
AHOSKIE*       NOT AVBL
EDENTON*       MIX PCPN  31  29  94 NE7       30.06F
CURRITUCK*     LGT SNOW  29  28  96 N5        30.07F VSB 3/4
KILL DEVIL HLS LGT SNOW  32  29  90 NE5       30.03F
MANTEO         LGT SNOW  31  31 100 NE10      30.04F VSB 1   WCI  22
CAPE HATTERAS  CLOUDY    35  34  96 NE13G29   29.97F
TARBORO*       MIX PCPN  30  26  88 CALM      30.08F
GOLDSBORO      CLOUDY    30  30 100 N3        30.04F
WASHINGTON     RAIN      30  28  90 N9        30.05F
GREENVILLE     MIX PCPN  32  30  93 N6        30.07F
NEW BERN       MIX PCPN  32  30  92 N8        30.05F
WILMINGTON     LGT RAIN  36  31  82 N9        30.03S
$$

VAZ048-122200-
ELSEWHERE

CITY           SKY/WX    TMP DP  RH WIND       PRES   REMARKS
HARRISBURG PA  CLOUDY    24   8  50 SW9       30.03F
BALTIMORE      CLOUDY    26   9  48 E10       30.04F WCI  16
ANNAPOLIS      CLOUDY    27  12  53 SE8       30.06F
ANDREWS AFB    CLOUDY    29   8  41 SW6       30.02F
PHILADELPHIA   NOT AVBL
HENDERSON NC   CLOUDY    31  10  40 S3        30.04S
GREENSBORO     MOSUNNY   37  13  37 SW5       29.99F
ROCKY MOUNT    LGT SNOW  28  24  85 N3        30.06F FOG
$$

VAZ100-122200-
MARINE

STATION/POSITION TIME  TEMP    WIND        PRES    WAVE   SWELL
                       AIR SEA DIR/SP/G            HT/PER HT/PER
                 (UTC) (F)     (DEG/KT/KT) (MB)    (FT/S) (FT/S)
BRANDYWINE LGT   2000   24      90/  4/  5 1019.0F
CAPE MAY NJ      2000   25 37  140/  7/  9 1018.9F
LEWES DE         2000   28 38  140/  5/  6 1018.7F
15NM E FENWICK I 2050   27 42              1019.4F   1/11
OCEAN-CITY-INLET 2000   26 40  220/  9/ 11 1018.8F
WACHAPREAGUE VA  2000   27 36  200/  6/  9 1019.7F
THOMAS POINT MD  2100   26     160/ 10     1018.4F
GOOSES REEF MD   2000   26 38  150/ 12/ 14 1019.8F   1/ 2
COVE POINT MD    2000   25     180/ 10/ 12 1019.5F
SOLOMONS ISLAND  2000   28 40  110/  6/ 11   N/A
BISHOPS HEAD MD  2000   26 34  180/  4/ 10 1018.3F
PINEY POINT MD   2000          170/ 10/ 12   N/A
POTOMAC MD       2000   27 39  150/  8/ 12 1018.3F
CAMBRIDGE MD     2000   29 36  190/  3/  5 1018.2F
LEWISETTA VA     2000   27 37  100/  9/ 11 1018.6F
RAPPAHANNOCK LGT 2000          190/  7/  9 1019.7F
STINGRAY PT      2000   27 40  180/  6/ 12 1019.4F   0
YORK RVR RNG VA  2000   27     180/  6/  9 1018.5F
YORKTOWN VA      2000   27 41  160/  5/  8 1018.9F
JAMESTOWN VA     2000   27 41  130/  6/ 10   N/A     0
DOMINION TERM VA 2000   27      80/  4/  6 1018.8F
KIPTOPEKE VA     2000      40   90/  1/  4   N/A
CHES BAY BRIDGE  2000   27 41  130/  4/  6 1018.8F
CAPE HENRY VA    2000   27     140/  7/ 10   N/A
CHESAPEAKE LGHT  2000   27     120/  6/  7 1020.3F
WILLOUBY STN VA  2000   26      70/  5/  7 1019.5F
CAPE HENRY BUOY  2028      41                N/A     1/ 8
1ST LANDING BUOY 2000      41                N/A     1/ 3
CAPE CHARLES BUO 2026      42                N/A     1/11   2/11
OFFSHORE WE BUOY 2021      44                N/A     2/ 5   2/ 5
64NM E OF VA BCH 2050   30 48   40/  8/ 10 1018.2F   2/ 6   2/ 6
DUCK PIER NC     2000   29      40/ 10/ 12 1017.9F
44100 DUCK FRF   2024      45                N/A     2/ 5
44056 DUCK FRF   2011      42                N/A     2/ 5
OREGON INLET NC  2000   30 40   20/ 13/ 16 1017.7F
HATTERAS NC      2000   35 47   30/ 18/ 25 1015.3F
DIAMOND SHLS NC  2050   45 60   20/ 23/ 27 1014.0F   5/ 5   2/ 9
$$



USA.gov is the U.S. government's official web portal to all federal, state and local government web resources and services.